User: anonymous   Login
Location: Caltech
(34.1382°N, 118.1253°W)
Time: 14:29:20
(UTC-07:00)
Language:

CZ-4B DEB - Orbit

View from above orbital plane
View from above orbital plane
View from above satellite
View from above satellite

Ground track
Ground track

The orbit data is extracted from the following two-line orbital elements,

1 27433U 02024D   15182.82699176  .00000132  00000-0  96387-4 0  9995
2 27433 098.8745 148.4958 0013355 276.5307 083.4344 14.11917345676076
Epoch (UTC): 01 July 2015 19:50:52
Eccentricity: 0.0013355
inclination: 98.8745°
perigee height: 843 km
apogee height: 862 km
right ascension of ascending node: 148.4958°
argument of perigee: 276.5307°
revolutions per day: 14.11917345
mean anomaly at epoch: 83.4344°
orbit number at epoch: 67607

The dashed part of the orbit path shows where the satellite is in the earth's shadow,  

DLR